| time (UTC) | temp F | wind direction | speed knots | gust knots | rain 1hr in | rain 24hr in | rain mn in | humidity % | barometer mb |
| 20260508070509 | 53 | 0 | 0.0 | 0.0 | 0.00 | 0.00 | 0.00 | 10 | 626.0 |
| 20260508063503 | 53 | 0 | 0.0 | 0.0 | 0.00 | 0.00 | 0.00 | 10 | 626.0 |
| 20260508060458 | 50 | 0 | 0.0 | 0.0 | 0.00 | 0.00 | 0.00 | 10 | 624.0 |
| 20260508053453 | 43 | 0 | 0.0 | 0.0 | 0.00 | 0.00 | 0.00 | 10 | 620.0 |
| 20260508050447 | 41 | 0 | 0.0 | 0.0 | 0.00 | 0.00 | 0.00 | 10 | 619.0 |
| 20260508043442 | 41 | 0 | 0.0 | 0.0 | 0.00 | 0.00 | 0.00 | 10 | 619.0 |
| 20260508040437 | 41 | 0 | 0.0 | 0.0 | 0.00 | 0.00 | 0.00 | 10 | 619.0 |
| 20260508033432 | 42 | 0 | 0.0 | 0.0 | 0.00 | 0.00 | 0.00 | 10 | 619.0 |
| 20260508030428 | 42 | 0 | 0.0 | 0.0 | 0.00 | 0.00 | 0.00 | 10 | 619.0 |
| 20260508023421 | 41 | 0 | 0.0 | 0.0 | 0.00 | 0.00 | 0.00 | 10 | 619.0 |
| 20260508020416 | 42 | 0 | 0.0 | 0.0 | 0.00 | 0.00 | 0.00 | 10 | 619.0 |
| 20260508013412 | 42 | 0 | 0.0 | 0.0 | 0.00 | 0.00 | 0.00 | 10 | 619.0 |
| 20260508010405 | 42 | 0 | 0.0 | 0.0 | 0.00 | 0.00 | 0.00 | 10 | 620.0 |
| 20260508003400 | 43 | 0 | 0.0 | 0.0 | 0.00 | 0.00 | 0.00 | 10 | 620.0 |
| 20260508000357 | 44 | 0 | 0.0 | 0.0 | 0.00 | 0.00 | 0.00 | 10 | 620.0 |
| 20260507233350 | 44 | 0 | 0.0 | 0.0 | 0.00 | 0.00 | 0.00 | 10 | 621.0 |
| 20260507230345 | 45 | 0 | 0.0 | 0.0 | 0.00 | 0.00 | 0.00 | 10 | 621.0 |
| 20260507223339 | 46 | 0 | 0.0 | 0.0 | 0.00 | 0.00 | 0.00 | 10 | 622.0 |
| 20260507220334 | 47 | 0 | 0.0 | 0.0 | 0.00 | 0.00 | 0.00 | 10 | 622.0 |
| 20260507213329 | 48 | 0 | 0.0 | 0.0 | 0.00 | 0.00 | 0.00 | 10 | 623.0 |
| 20260507210324 | 49 | 0 | 0.0 | 0.0 | 0.00 | 0.00 | 0.00 | 10 | 623.0 |
| 20260507203318 | 50 | 0 | 0.0 | 0.0 | 0.00 | 0.00 | 0.00 | 10 | 624.0 |
| 20260507200313 | 50 | 0 | 0.0 | 0.0 | 0.00 | 0.00 | 0.00 | 10 | 624.0 |
| 20260507193308 | 51 | 0 | 0.0 | 0.0 | 0.00 | 0.00 | 0.00 | 10 | 625.0 |
| 20260507190303 | 51 | 0 | 0.0 | 0.0 | 0.00 | 0.00 | 0.00 | 10 | 625.0 |
| 20260507183257 | 52 | 0 | 0.0 | 0.0 | 0.00 | 0.00 | 0.00 | 10 | 625.0 |
| 20260507180253 | 53 | 0 | 0.0 | 0.0 | 0.00 | 0.00 | 0.00 | 10 | 626.0 |
| 20260507173247 | 53 | 0 | 0.0 | 0.0 | 0.00 | 0.00 | 0.00 | 10 | 626.0 |
| 20260507170242 | 53 | 0 | 0.0 | 0.0 | 0.00 | 0.00 | 0.00 | 10 | 626.0 |
| 20260507163237 | 52 | 0 | 0.0 | 0.0 | 0.00 | 0.00 | 0.00 | 10 | 625.0 |
| 20260507160232 | 51 | 0 | 0.0 | 0.0 | 0.00 | 0.00 | 0.00 | 10 | 625.0 |
| 20260507153226 | 50 | 0 | 0.0 | 0.0 | 0.00 | 0.00 | 0.00 | 10 | 624.0 |
| 20260507150221 | 51 | 0 | 0.0 | 0.0 | 0.00 | 0.00 | 0.00 | 10 | 625.0 |
| 20260507143215 | 51 | 0 | 0.0 | 0.0 | 0.00 | 0.00 | 0.00 | 10 | 624.0 |
| 20260507140211 | 50 | 0 | 0.0 | 0.0 | 0.00 | 0.00 | 0.00 | 10 | 624.0 |
| 20260507133205 | 49 | 0 | 0.0 | 0.0 | 0.00 | 0.00 | 0.00 | 10 | 624.0 |
| 20260507130200 | 49 | 0 | 0.0 | 0.0 | 0.00 | 0.00 | 0.00 | 10 | 623.0 |
| 20260507123155 | 48 | 0 | 0.9 | 0.0 | 0.00 | 0.00 | 0.00 | 10 | 623.0 |
| 20260507120149 | 49 | 0 | 0.0 | 0.0 | 0.00 | 0.00 | 0.00 | 10 | 624.0 |
| 20260507113144 | 48 | 0 | 0.0 | 0.0 | 0.00 | 0.00 | 0.00 | 10 | 623.0 |
| 20260507110139 | 49 | 0 | 0.0 | 0.0 | 0.00 | 0.00 | 0.00 | 10 | 624.0 |
| 20260507103134 | 49 | 0 | 0.0 | 0.0 | 0.00 | 0.00 | 0.00 | 10 | 623.0 |
| 20260507100128 | 49 | 0 | 0.0 | 0.0 | 0.00 | 0.00 | 0.00 | 10 | 624.0 |
| 20260507093123 | 48 | 0 | 0.0 | 0.0 | 0.00 | 0.00 | 0.00 | 10 | 623.0 |
| 20260507090118 | 48 | 0 | 2.6 | 0.0 | 0.00 | 0.00 | 0.00 | 10 | 623.0 |
| 20260507083112 | 49 | 0 | 1.7 | 0.0 | 0.00 | 0.00 | 0.00 | 10 | 623.0 |
| 20260507080108 | 49 | 0 | 0.0 | 0.0 | 0.00 | 0.00 | 0.00 | 10 | 623.0 |
| 20260507073102 | 47 | 0 | 1.7 | 0.0 | 0.00 | 0.00 | 0.00 | 10 | 623.0 |